Regional Weather Roundup
Issued by NWS Upton, NY

Current Version | Previous Version | Text Only | Print | Product List | Glossary Off
Versions: 1 2 3 4 5 6 7 8 9 10 11 12 13 14 15 16 17 18 19 20 21 22 23 24 25 26 27 28 29 30 31 32 33 34 35 36 37 38 39 40 41 42 43 44 45 46 47 48 49 50
000 ASUS41 KOKX 271904 RWROKX REGIONAL WEATHER ROUNDUP NATIONAL WEATHER SERVICE NEW YORK NY 300 PM EDT THU AUG 27 2015 NOTE: "FAIR" INDICATES FEW OR NO CLOUDS BELOW 12,000 FEET WITH NO SIGNIFICANT WEATHER AND/OR OBSTRUCTIONS TO VISIBILITY. NYZ071-072-176-178-NJZ106-104-272000- NEW YORK CITY METRO AREA CITY SKY/WX TMP DP RH WIND PRES REMARKS CENTRAL PARK MOSUNNY 80 51 36 CALM 30.07F LAGUARDIA APRT PTSUNNY 79 53 40 N8 30.04S KENNEDY INTL PTSUNNY 82 51 34 NW12 30.05S NEWARK/LIBERTY PTSUNNY 82 52 35 W12 30.05S BRNX BOT. GARD N/A 75 52 43 NW6 30.05F TETERBORO MOSUNNY 79 51 37 W13G20 30.04S $$ NYZ177-179-078>081-272000- LONG ISLAND NEW YORK CITY SKY/WX TMP DP RH WIND PRES REMARKS FARMINGDALE MOSUNNY 81 53 37 NW5 30.04S ISLIP PTSUNNY 78 56 46 W7 30.02F SHIRLEY MOSUNNY 78 59 51 S12G18 30.04S WESTHAMPTON PTSUNNY 80 59 48 VRB7 30.05S MONTAUK POINT N/A 79 56 45 W8 30.03F $$ NYZ052-065-067-272000- HUDSON VALLEY CITY SKY/WX TMP DP RH WIND PRES REMARKS WHITE PLAINS MOSUNNY 77 53 43 W9 30.05F NEWBURGH PTSUNNY 73 55 53 NW9 30.07F MONTGOMERY PTSUNNY 77 56 48 NW12G20 30.06F POUGHKEEPSIE CLOUDY 77 54 44 W12 30.04F ALBANY PTSUNNY 72 54 53 NW12G21 30.05S $$ NJZ001-105-106-008-010-013-015-019>022-104-272000- NEW JERSEY CITY SKY/WX TMP DP RH WIND PRES REMARKS NEWARK/LIBERTY PTSUNNY 82 52 35 W12 30.05S TETERBORO MOSUNNY 79 51 37 W13G20 30.04S CALDWELL CLOUDY 76 52 43 W10 30.07S MORRISTOWN PTSUNNY 77 55 47 NW12G20 30.07S SOMERVILLE PTSUNNY 76 52 43 N10 30.05F SUSSEX CLOUDY 73 53 49 VRB3 30.08F ANDOVER N/A 72 55 55 NW3 30.09S TRENTON PTSUNNY 77 54 44 NW9 30.07S MILLVILLE PTSUNNY 78 55 44 NW5 30.07F ATLANTIC CITY PTSUNNY 81 55 40 W9 30.06F WRIGHTSTOWN PTSUNNY 77 56 47 NW13 30.04F TOMS RIVER PTSUNNY 77 54 44 NW6 30.06F BELMAR CLOUDY 79 54 41 NW8 30.06S $$ PAZ047>061-062-071-272000- EASTERN PENNSYLVANIA CITY SKY/WX TMP DP RH WIND PRES REMARKS PHILADELPHIA PTSUNNY 79 51 37 NW15 30.07F ALLENTOWN CLOUDY 74 54 49 NW9 30.09F SCRANTON CLOUDY 70 52 52 NW6 30.12F $$ CTZ002-004>006-009-010-012-RIZ004-006-007-MAZ004-011-015-272000- SOUTHERN NEW ENGLAND IN CT CITY SKY/WX TMP DP RH WIND PRES REMARKS BRADLEY INTL PTSUNNY 76 55 48 NW10 30.03S HARTFORD PTSUNNY 79 55 43 N10 30.02S DANBURY CLOUDY 75 54 47 N9 30.06F WTRBRY/OXFORD NOT AVBL BRIDGEPORT PTSUNNY 79 56 45 SW12 30.03F MERIDEN MOSUNNY 78 52 40 NW9 30.03S NEW HAVEN PTSUNNY 75 59 57 S14G20 30.03S CHESTER NOT AVBL GROTON PTSUNNY 75 62 64 SW16G24 30.01S WILLIMANTIC SUNNY 76 55 48 NW10G21 30.02S IN RI CITY SKY/WX TMP DP RH WIND PRES REMARKS PROVIDENCE PTSUNNY 80 56 43 W13 29.99S BLOCK ISLAND MOSUNNY 77 61 57 W16 30.02S WESTERLY PTSUNNY 75 59 57 SW14G20 30.02S IN MA CITY SKY/WX TMP DP RH WIND PRES REMARKS BOSTON MOSUNNY 82 56 40 W13 29.96F WORCESTER PTSUNNY 72 54 53 W12 30.03S WESTFIELD CLOUDY 74 53 48 W12 30.03S PROVINCETOWN SUNNY 75 55 50 N3 29.98F NANTUCKET PTSUNNY 77 61 57 W14 30.00S $$ ANZ330-335-338-340-345-350-353-355-272000- COASTAL MARINE OBSERVATIONS STATION/POSITION TIME SKY/WX TEMP WIND PRES VSBY WAVE AIR SEA DIR/SP/G HT/PER (UTC) (F) (DEG/KT/KT) (MB) (MI) (FT/S) NY HARB ENTRANCE 1750 74 77 270/ 6/ 10 1017.5 2/10 4S FIRE IS NOT AVBL 20S FIRE ISLAND 1750 72 75 280/ 8/ 10 1017.6 2/10 GREAT SOUTH BAY 1800 75 76 210/ 10/ 14 N/A 23SW MTP 1850 71 72 250/ 10/ 12 1016.8 2/11 HUDSON CANYON NOT AVBL KINGS POINT 1800 76 73 10/ 8/ 12 1016.8 EXECUTION ROCKS 1800 76 300/ 12/ 16 N/A CENTRAL LI SOUND NOT AVBL EASTERN LI SOUND 1800 72 71 250/ 14/ 16 N/A ROBBINS REEF 1800 75 330/ 10/ 12 1016.5 $$ >>>>>>>>>>>>>>>>>>>>>>>>>>>> KEY <<<<<<<<<<<<<<<<<<<<<<<<<<< > < > SKY/WX - SKY CONDITION/PRESENT WEATHER < > TMP - TEMPERATURE IN FAHRENHEIT < > DP - DEWPOINT IN FAHRENHEIT < > RH - RELATIVE HUMIDITY IN PERCENT < > WIND - DIRECTION AND SPEED IN MPH < > PRES - MEAN SEA LEVEL PRESSURE IN INCHES OF HG < > WCI - WIND CHILL INDEX < > VSB - VISIBILITY IN MILES < > HX - HEAT INDEX < > TC - TEMPERATURE IN CELSIUS < > VRB - VARIABLE WIND DIRECTION < > < >>>>>>>>>>>>>>>>>>>>>>>>>>>> KEY <<<<<<<<<<<<<<<<<<<<<<<<<<<

USA.gov is the U.S. government's official web portal to all federal, state and local government web resources and services.